Retour au catalogue

ONEWEB-0656

ActifCommunicationsPO
NORAD 55817·PAYLOAD·🇬🇧 United Kingdom

Lancé Mar 9, 2023 depuis Cape Canaveral Space Force Station

Loading…

Prochains Passages (prochaines 24 heures)

TLE

FraisSource: CelesTrak SupGP

Époque: Sep 14, 2026, 16:43 UTC

1 55817C 23029X   26257.69667083 -.00001147  00000+0 -28237-2 0  2574
2 55817  87.9147 256.5767 0002145 101.2984  10.5807 13.20771932    16

Suivez ONEWEB-0656 en temps réel avec AllMySat

Download on the App Store